FW7086 Weather Reports


Display with metric or nautical units.
time (UTC)temp
F
wind
direction
speed
MPH
gust
MPH
rain 1hr
in
rain 24hr
in
rain mn
in
humidity
%
barometer
mb
20260901235930 91 143 4.0 6.0 0.00 0.00 0.00 63 1015.1
20260901235425 91 163 2.0 3.0 0.00 0.00 0.00 63 1015.3
20260901234920 92 189 0.0 1.0 0.00 0.00 0.00 63 1015.4
20260901234414 92 187 1.0 3.0 0.00 0.00 0.00 62 1015.0
20260901233909 92 172 2.0 3.0 0.00 0.00 0.00 62 1015.0
20260901233404 92 182 2.0 2.0 0.00 0.00 0.00 63 1015.2
20260901232900 92 201 4.0 6.0 0.00 0.00 0.00 63 1015.3
20260901232354 92 176 4.0 4.0 0.00 0.00 0.00 62 1015.4
20260901231850 93 193 2.0 3.0 0.00 0.00 0.00 61 1015.2
20260901231346 93 192 3.0 3.0 0.00 0.00 0.00 61 1015.2
20260901230843 93 226 3.0 4.0 0.00 0.00 0.00 61 1015.2
20260901230342 93 169 4.0 7.0 0.00 0.00 0.00 61 1015.2
20260901225838 93 155 3.0 3.0 0.00 0.00 0.00 61 1015.3
20260901225336 93 202 3.0 3.0 0.00 0.00 0.00 61 1015.3
20260901224832 93 188 3.0 3.0 0.00 0.00 0.00 61 1015.3
20260901224328 93 232 3.0 3.0 0.00 0.00 0.00 60 1015.4
20260901223824 93 164 3.0 6.0 0.00 0.00 0.00 60 1015.4
20260901223319 94 188 1.0 2.0 0.00 0.00 0.00 59 1015.4
20260901222815 93 207 0.0 1.0 0.00 0.00 0.00 59 1015.4
20260901222312 94 174 5.0 7.0 0.00 0.00 0.00 58 1015.2
20260901221808 94 204 2.0 3.0 0.00 0.00 0.00 59 1015.4
20260901221303 94 198 3.0 4.0 0.00 0.00 0.00 59 1015.2
20260901220802 94 201 2.0 2.0 0.00 0.00 0.00 59 1015.2
20260901220301 94 180 5.0 6.0 0.00 0.00 0.00 59 1015.3
20260901215800 94 166 4.0 6.0 0.00 0.00 0.00 59 1015.2
20260901215300 94 206 2.0 3.0 0.00 0.00 0.00 58 1015.2
20260901214758 95 155 2.0 3.0 0.00 0.00 0.00 59 1015.2
20260901214257 95 191 4.0 4.0 0.00 0.00 0.00 58 1015.3
20260901213753 96 170 3.0 3.0 0.00 0.00 0.00 57 1015.1
20260901213252 96 225 5.0 7.0 0.00 0.00 0.00 56 1015.3
20260901212752 96 162 3.0 4.0 0.00 0.00 0.00 57 1015.3
20260901212248 96 228 2.0 2.0 0.00 0.00 0.00 58 1015.1
20260901211742 95 160 5.0 7.0 0.00 0.00 0.00 58 1015.3
20260901211239 96 188 4.0 7.0 0.00 0.00 0.00 57 1015.3
20260901210735 96 228 3.0 6.0 0.00 0.00 0.00 57 1015.4
20260901210230 95 218 2.0 2.0 0.00 0.00 0.00 58 1015.2
20260901205727 96 135 4.0 6.0 0.00 0.00 0.00 58 1015.4
20260901205226 96 188 2.0 2.0 0.00 0.00 0.00 57 1015.3
20260901204722 96 208 2.0 3.0 0.00 0.00 0.00 57 1015.2
20260901204217 96 295 1.0 2.0 0.00 0.00 0.00 58 1015.4
20260901203712 96 177 3.0 4.0 0.00 0.00 0.00 59 1015.6
20260901203207 96 335 1.0 2.0 0.00 0.00 0.00 58 1015.5
20260901202707 96 228 4.0 6.0 0.00 0.00 0.00 58 1015.4
20260901202202 96 185 2.0 3.0 0.00 0.00 0.00 59 1015.3
20260901201658 96 250 2.0 2.0 0.00 0.00 0.00 58 1015.5
20260901201157 95 227 2.0 2.0 0.00 0.00 0.00 59 1015.6
20260901200657 95 166 6.0 8.0 0.00 0.00 0.00 60 1015.4
20260901200152 95 149 4.0 4.0 0.00 0.00 0.00 60 1015.6
20260901195649 97 230 4.0 7.0 0.00 0.00 0.00 58 1015.9
20260901195144 96 184 1.0 1.0 0.00 0.00 0.00 56 1015.4
20260901194639 95 174 2.0 4.0 0.00 0.00 0.00 58 1015.7
20260901194135 95 164 2.0 4.0 0.00 0.00 0.00 59 1015.6
20260901193630 96 202 2.0 2.0 0.00 0.00 0.00 58 1015.8
20260901193124 95 216 2.0 2.0 0.00 0.00 0.00 59 1015.8
20260901192619 95 161 2.0 2.0 0.00 0.00 0.00 58 1015.7
20260901192114 95 178 1.0 2.0 0.00 0.00 0.00 61 1015.9
20260901191610 95 183 4.0 4.0 0.00 0.00 0.00 59 1015.9
20260901191107 95 165 3.0 4.0 0.00 0.00 0.00 60 1015.8
20260901190602 95 235 2.0 2.0 0.00 0.00 0.00 59 1015.7
20260901190101 95 183 4.0 4.0 0.00 0.00 0.00 60 1015.9
20260901185559 95 162 3.0 3.0 0.00 0.00 0.00 59 1015.9
20260901185058 94 241 2.0 3.0 0.00 0.00 0.00 59 1016.1
20260901184554 95 185 2.0 3.0 0.00 0.00 0.00 59 1015.9
20260901184050 95 146 3.0 3.0 0.00 0.00 0.00 60 1016.1
20260901183549 95 126 4.0 6.0 0.00 0.00 0.00 59 1016.0
20260901183045 96 17 1.0 2.0 0.00 0.00 0.00 59 1016.0
20260901182541 95 344 1.0 1.0 0.00 0.00 0.00 62 1015.9
20260901182041 95 308 2.0 3.0 0.00 0.00 0.00 62 1016.0
20260901181541 95 295 1.0 2.0 0.00 0.00 0.00 59 1016.1
20260901181040 95 202 1.0 1.0 0.00 0.00 0.00 58 1016.0
20260901180539 96 326 2.0 2.0 0.00 0.00 0.00 56 1016.1
20260901180035 95 284 2.0 3.0 0.00 0.00 0.00 55 1016.1
20260901175534 96 226 2.0 2.0 0.00 0.00 0.00 56 1016.2
20260901175028 95 282 2.0 3.0 0.00 0.00 0.00 61 1016.1
20260901174524 94 202 2.0 2.0 0.00 0.00 0.00 60 1016.1
20260901174021 95 337 2.0 3.0 0.00 0.00 0.00 61 1016.3
20260901173520 94 193 1.0 1.0 0.00 0.00 0.00 62 1016.3
20260901173016 94 183 3.0 4.0 0.00 0.00 0.00 62 1016.4
20260901172512 93 335 4.0 4.0 0.00 0.00 0.00 62 1016.3
20260901172009 93 146 3.0 6.0 0.00 0.00 0.00 64 1016.5
20260901171509 93 89 3.0 3.0 0.00 0.00 0.00 65 1016.5
20260901171008 93 292 6.0 8.0 0.00 0.00 0.00 65 1016.4
20260901170502 93 13 1.0 2.0 0.00 0.00 0.00 65 1016.5
20260901170002 92 186 2.0 4.0 0.00 0.00 0.00 64 1016.7
20260901165457 93 189 1.0 2.0 0.00 0.00 0.00 63 1016.8
20260901164953 93 56 0.0 0.0 0.00 0.00 0.00 65 1016.8
20260901164448 91 271 2.0 2.0 0.00 0.00 0.00 66 1016.8
20260901163943 92 169 3.0 3.0 0.00 0.00 0.00 66 1016.8
20260901163438 91 351 1.0 1.0 0.00 0.00 0.00 68 1016.8
20260901162937 91 262 2.0 2.0 0.00 0.00 0.00 67 1016.9
20260901162432 90 147 2.0 3.0 0.00 0.00 0.00 68 1016.8
20260901161931 91 155 1.0 2.0 0.00 0.00 0.00 67 1016.8
20260901161431 90 50 1.0 3.0 0.00 0.00 0.00 68 1016.8
20260901160926 90 237 0.0 2.0 0.00 0.00 0.00 70 1016.7
20260901160422 90 165 4.0 4.0 0.00 0.00 0.00 69 1016.4
20260901155921 89 26 2.0 2.0 0.00 0.00 0.00 71 1016.8
20260901155421 89 174 2.0 2.0 0.00 0.00 0.00 70 1016.5
20260901154918 89 248 0.0 0.0 0.00 0.00 0.00 71 1016.8
20260901154417 88 222 0.0 1.0 0.00 0.00 0.00 73 1016.9
20260901153912 87 146 2.0 2.0 0.00 0.00 0.00 73 1016.7
20260901153412 87 179 2.0 2.0 0.00 0.00 0.00 73 1016.7
20260901152906 89 198 1.0 1.0 0.00 0.00 0.00 72 1016.7
20260901152401 88 155 2.0 3.0 0.00 0.00 0.00 70 1016.7
20260901151855 87 208 1.0 1.0 0.00 0.00 0.00 73 1016.8
20260901151349 86 173 1.0 1.0 0.00 0.00 0.00 74 1016.5
20260901150849 86 183 4.0 4.0 0.00 0.00 0.00 75 1016.8
20260901150347 86 136 4.0 6.0 0.00 0.00 0.00 74 1016.4
20260901145844 86 257 0.0 1.0 0.00 0.00 0.00 74 1016.8
20260901145344 85 165 2.0 2.0 0.00 0.00 0.00 76 1016.8
20260901144839 85 177 2.0 2.0 0.00 0.00 0.00 77 1016.5
20260901144335 85 165 2.0 2.0 0.00 0.00 0.00 75 1016.8
20260901143831 86 212 2.0 2.0 0.00 0.00 0.00 75 1016.8
20260901143326 86 303 2.0 2.0 0.00 0.00 0.00 74 1016.8
20260901142823 85 182 3.0 3.0 0.00 0.00 0.00 76 1016.7
20260901142321 85 141 1.0 1.0 0.00 0.00 0.00 74 1016.7
20260901141817 84 184 1.0 1.0 0.00 0.00 0.00 77 1016.7
20260901141318 83 163 0.0 1.0 0.00 0.00 0.00 78 1016.7
20260901140816 82 188 1.0 2.0 0.00 0.00 0.00 78 1016.7
20260901140315 82 177 1.0 2.0 0.00 0.00 0.00 79 1016.7
20260901135810 82 128 0.0 0.0 0.00 0.00 0.00 80 1016.8
20260901135310 82 153 1.0 1.0 0.00 0.00 0.00 80 1016.8
20260901134807 81 176 2.0 2.0 0.00 0.00 0.00 81 1016.5
20260901134301 81 181 4.0 4.0 0.00 0.00 0.00 81 1016.5
20260901133801 81 177 2.0 3.0 0.00 0.00 0.00 81 1016.7
20260901133300 81 155 0.0 1.0 0.00 0.00 0.00 81 1017.0
20260901132758 81 222 2.0 3.0 0.00 0.00 0.00 82 1016.9
20260901132254 81 190 2.0 2.0 0.00 0.00 0.00 82 1017.0
20260901131748 80 185 2.0 2.0 0.00 0.00 0.00 83 1017.1
20260901131248 79 169 0.0 0.0 0.00 0.00 0.00 84 1017.0
20260901130743 79 146 3.0 4.0 0.00 0.00 0.00 85 1016.7
20260901130242 79 130 3.0 3.0 0.00 0.00 0.00 85 1016.9
20260901125740 79 176 1.0 1.0 0.00 0.00 0.00 85 1017.0
20260901125236 79 195 2.0 3.0 0.00 0.00 0.00 85 1016.7
20260901124736 79 194 1.0 1.0 0.00 0.00 0.00 86 1017.1
20260901124230 79 187 1.0 2.0 0.00 0.00 0.00 86 1016.9
20260901123730 78 255 1.0 2.0 0.00 0.00 0.00 86 1016.8
20260901123225 78 172 0.0 0.0 0.00 0.00 0.00 86 1016.8
20260901122724 78 217 1.0 1.0 0.00 0.00 0.00 86 1016.9
20260901122219 78 281 0.0 0.0 0.00 0.00 0.00 87 1016.8
20260901121713 78 200 0.0 0.0 0.00 0.00 0.00 87 1016.8
20260901121209 78 175 2.0 2.0 0.00 0.00 0.00 87 1016.7
20260901120708 78 163 0.0 0.0 0.00 0.00 0.00 87 1016.5
20260901120203 78 164 0.0 0.0 0.00 0.00 0.00 87 1016.5
20260901115658 77 169 0.0 0.0 0.00 0.00 0.00 88 1016.4
20260901115154 77 169 0.0 0.0 0.00 0.00 0.00 88 1016.3
20260901114651 77 155 0.0 0.0 0.00 0.00 0.00 88 1016.0
20260901114150 77 162 0.0 0.0 0.00 0.00 0.00 88 1016.3
20260901113649 77 173 0.0 0.0 0.00 0.00 0.00 88 1016.2
20260901113145 77 173 0.0 0.0 0.00 0.00 0.00 89 1016.1
20260901112638 77 179 0.0 0.0 0.00 0.00 0.00 88 1016.2
20260901112133 77 168 0.0 1.0 0.00 0.00 0.00 88 1016.2
20260901111632 77 152 0.0 0.0 0.00 0.00 0.00 89 1016.0
20260901111131 77 134 0.0 0.0 0.00 0.00 0.00 89 1016.0
20260901110627 76 165 0.0 0.0 0.00 0.00 0.00 89 1015.8
20260901110122 77 181 0.0 0.0 0.00 0.00 0.00 89 1015.8
20260901105619 77 73 0.0 0.0 0.00 0.00 0.00 88 1015.9
20260901105117 77 224 0.0 0.0 0.00 0.00 0.00 88 1015.9
20260901104614 77 124 0.0 0.0 0.00 0.00 0.00 87 1015.8
20260901104109 77 179 0.0 0.0 0.00 0.00 0.00 87 1015.8
20260901103603 77 163 1.0 1.0 0.00 0.00 0.00 87 1015.9
20260901103059 78 173 1.0 1.0 0.00 0.00 0.00 87 1015.7
20260901102558 78 161 1.0 1.0 0.00 0.00 0.00 87 1015.6
20260901102053 78 171 1.0 1.0 0.00 0.00 0.00 87 1015.9
20260901101549 78 163 0.0 0.0 0.00 0.00 0.00 87 1015.6
20260901101048 78 189 1.0 1.0 0.00 0.00 0.00 86 1015.8
20260901100548 78 179 0.0 0.0 0.00 0.00 0.00 86 1015.9
20260901100048 78 197 1.0 1.0 0.00 0.00 0.00 86 1015.7
20260901095546 78 179 2.0 2.0 0.00 0.00 0.00 86 1015.7
20260901095044 78 162 1.0 1.0 0.00 0.00 0.00 86 1015.5
20260901094539 78 155 0.0 0.0 0.00 0.00 0.00 86 1015.5
20260901094038 78 66 1.0 2.0 0.00 0.00 0.00 86 1015.7
20260901093533 78 193 0.0 1.0 0.00 0.00 0.00 85 1015.7
20260901093028 78 191 2.0 2.0 0.00 0.00 0.00 85 1015.7
20260901092524 78 239 0.0 0.0 0.00 0.00 0.00 86 1015.7
20260901092021 78 167 0.0 0.0 0.00 0.00 0.00 86 1015.5
20260901091516 78 225 0.0 0.0 0.00 0.00 0.00 86 1015.5
20260901091015 78 179 0.0 0.0 0.00 0.00 0.00 85 1015.3
20260901090515 78 281 0.0 0.0 0.00 0.00 0.00 85 1015.3
20260901090011 78 231 1.0 2.0 0.00 0.00 0.00 84 1015.5
20260901085506 79 126 2.0 2.0 0.00 0.00 0.00 84 1015.4
20260901085002 79 155 3.0 3.0 0.00 0.00 0.00 84 1015.3
20260901084458 79 172 1.0 1.0 0.00 0.00 0.00 84 1015.3
20260901083955 79 175 2.0 2.0 0.00 0.00 0.00 84 1015.3
20260901083454 79 235 0.0 1.0 0.00 0.00 0.00 83 1015.4
20260901082952 79 178 2.0 3.0 0.00 0.00 0.00 83 1015.3
20260901082447 79 180 1.0 1.0 0.00 0.00 0.00 83 1015.4
20260901081942 79 245 2.0 4.0 0.00 0.00 0.00 83 1015.1
20260901081437 79 196 1.0 2.0 0.00 0.00 0.00 83 1015.5
20260901080933 79 114 1.0 2.0 0.00 0.00 0.00 82 1015.0
20260901080432 79 215 3.0 3.0 0.00 0.00 0.00 82 1015.4
20260901075932 80 183 1.0 1.0 0.00 0.00 0.00 82 1015.4
20260901075427 80 235 3.0 3.0 0.00 0.00 0.00 82 1015.2
20260901074921 80 142 3.0 6.0 0.00 0.00 0.00 82 1015.3
20260901074416 80 189 1.0 2.0 0.00 0.00 0.00 81 1015.3
20260901073912 80 150 2.0 2.0 0.00 0.00 0.00 81 1015.3
20260901073408 80 143 1.0 2.0 0.00 0.00 0.00 81 1015.0
20260901072903 80 208 1.0 1.0 0.00 0.00 0.00 81 1015.4
20260901072403 80 125 3.0 3.0 0.00 0.00 0.00 81 1015.2
20260901071858 80 205 3.0 4.0 0.00 0.00 0.00 81 1015.4
20260901071356 80 167 3.0 3.0 0.00 0.00 0.00 81 1015.1
20260901070855 80 210 0.0 0.0 0.00 0.00 0.00 81 1015.2
20260901070352 80 226 0.0 0.0 0.00 0.00 0.00 81 1015.2
20260901065850 80 181 2.0 2.0 0.00 0.00 0.00 81 1015.3
20260901065346 80 136 0.0 0.0 0.00 0.00 0.00 82 1015.3
20260901064841 79 20 0.0 1.0 0.00 0.00 0.00 82 1015.0
20260901064337 79 151 0.0 0.0 0.00 0.00 0.00 83 1015.1
20260901063835 79 291 0.0 0.0 0.00 0.00 0.00 83 1015.2
20260901063331 80 170 0.0 0.0 0.00 0.00 0.00 82 1015.0
20260901062826 80 168 1.0 1.0 0.00 0.00 0.00 81 1015.3
20260901062322 80 162 0.0 0.0 0.00 0.00 0.00 81 1015.1
20260901061818 80 183 1.0 1.0 0.00 0.00 0.00 82 1015.1
20260901061313 80 228 2.0 3.0 0.00 0.00 0.00 82 1015.0
20260901060808 80 194 1.0 1.0 0.00 0.00 0.00 83 1015.1
20260901060304 80 158 0.0 0.0 0.00 0.00 0.00 82 1015.1
20260901055758 80 175 0.0 0.0 0.00 0.00 0.00 82 1015.0
20260901055255 80 145 0.0 0.0 0.00 0.00 0.00 82 1015.3
20260901054751 80 133 0.0 1.0 0.00 0.00 0.00 82 1015.3
20260901054248 80 141 0.0 1.0 0.00 0.00 0.00 81 1015.2
20260901053743 81 160 0.0 0.0 0.00 0.00 0.00 81 1015.2
20260901053243 81 173 1.0 1.0 0.00 0.00 0.00 81 1015.2
20260901052739 81 160 1.0 1.0 0.00 0.00 0.00 81 1015.3
20260901052235 81 197 2.0 2.0 0.00 0.00 0.00 81 1015.1
20260901051733 81 130 1.0 2.0 0.00 0.00 0.00 81 1015.3
20260901051228 80 163 2.0 3.0 0.00 0.00 0.00 82 1015.2
20260901050724 81 195 1.0 1.0 0.00 0.00 0.00 82 1015.0
20260901050219 81 192 1.0 1.0 0.00 0.00 0.00 82 1015.1
20260901045714 81 204 3.0 3.0 0.00 0.25 0.25 82 1015.0
20260901045209 80 189 3.0 3.0 0.00 0.25 0.25 83 1015.0
20260901044704 80 171 1.0 2.0 0.00 0.25 0.25 83 1015.2
20260901044200 80 158 1.0 1.0 0.00 0.25 0.25 83 1015.2
20260901043656 80 168 2.0 2.0 0.00 0.25 0.25 83 1015.2
20260901043151 80 212 2.0 3.0 0.00 0.25 0.25 84 1015.3
20260901042650 80 187 0.0 1.0 0.00 0.25 0.25 86 1015.0
20260901042145 80 169 2.0 2.0 0.00 0.25 0.25 85 1015.3
20260901041641 80 171 3.0 3.0 0.00 0.25 0.25 85 1015.3
20260901041136 79 104 2.0 3.0 0.00 0.25 0.25 87 1015.2
20260901040636 78 170 1.0 2.0 0.00 0.25 0.25 91 1015.2
20260901040135 77 160 0.0 0.0 0.00 0.25 0.25 93 1015.4
20260901035634 77 160 0.0 0.0 0.00 0.25 0.25 93 1015.5
20260901035133 78 160 0.0 0.0 0.00 0.25 0.25 93 1015.2
20260901034632 78 2 0.0 0.0 0.00 0.25 0.25 92 1015.5
20260901034127 78 1 0.0 0.0 0.00 0.25 0.25 91 1015.4
20260901033621 78 1 0.0 0.0 0.00 0.25 0.25 90 1015.4
20260901033120 79 2 0.0 1.0 0.00 0.25 0.25 89 1015.4
20260901032619 79 73 0.0 0.0 0.00 0.25 0.25 88 1015.2
20260901032114 80 141 0.0 0.0 0.00 0.25 0.25 88 1015.3
20260901031609 80 151 0.0 0.0 0.00 0.25 0.25 87 1015.3
20260901031105 80 169 0.0 0.0 0.00 0.25 0.25 87 1015.3
20260901030605 80 149 2.0 2.0 0.00 0.25 0.25 87 1015.1
20260901030100 81 178 0.0 0.0 0.00 0.25 0.25 87 1015.3
20260901025559 80 152 2.0 2.0 0.00 0.25 0.25 87 1015.3
20260901025054 80 172 2.0 3.0 0.00 0.25 0.25 88 1015.2
20260901024549 80 171 2.0 2.0 0.00 0.25 0.25 89 1015.4
20260901024048 79 159 1.0 1.0 0.00 0.25 0.25 91 1015.7
20260901023546 79 92 0.0 0.0 0.00 0.25 0.25 92 1015.8
20260901023042 79 28 0.0 0.0 0.00 0.25 0.25 91 1015.8
20260901022537 79 31 0.0 0.0 0.00 0.25 0.25 91 1015.8
20260901022032 79 31 0.0 0.0 0.00 0.25 0.25 90 1015.6
20260901021528 80 169 0.0 0.0 0.00 0.25 0.25 89 1015.4
20260901021023 80 164 2.0 2.0 0.00 0.25 0.25 89 1015.6
20260901020519 80 250 0.0 0.0 0.00 0.25 0.25 90 1015.8
20260901020014 80 290 0.0 0.0 0.00 0.25 0.25 89 1015.8
20260901015509 80 290 0.0 0.0 0.00 0.25 0.25 88 1015.7
20260901015008 80 212 0.0 0.0 0.00 0.25 0.25 88 1015.8
20260901014504 81 143 0.0 0.0 0.00 0.25 0.25 87 1015.6
20260901014000 81 143 0.0 0.0 0.00 0.25 0.25 86 1015.6
20260901013455 81 185 0.0 0.0 0.00 0.25 0.25 86 1015.4
20260901012951 82 158 1.0 1.0 0.00 0.25 0.25 85 1015.5
20260901012450 82 168 0.0 0.0 0.00 0.25 0.25 85 1015.3
20260901011946 82 156 0.0 0.0 0.00 0.25 0.25 85 1015.3
20260901011442 82 160 0.0 0.0 0.00 0.25 0.25 85 1015.1
20260901010940 82 164 0.0 1.0 0.00 0.25 0.25 84 1015.1
20260901010435 82 230 1.0 2.0 0.00 0.25 0.25 83 1015.2
20260901005934 82 177 2.0 3.0 0.00 0.25 0.25 84 1015.1
20260901005429 82 190 1.0 2.0 0.00 0.25 0.25 84 1015.2
20260901004925 82 121 0.0 0.0 0.00 0.25 0.25 85 1015.3
20260901004424 81 162 0.0 1.0 0.00 0.25 0.25 87 1015.5
20260901003919 80 169 0.0 0.0 0.00 0.25 0.25 89 1015.3
20260901003414 80 159 0.0 0.0 0.00 0.25 0.25 90 1015.4
20260901002913 80 323 0.0 0.0 0.00 0.25 0.25 91 1015.3
20260901002412 80 299 0.0 0.0 0.00 0.25 0.25 90 1015.2
20260901001907 80 290 0.0 0.0 0.00 0.25 0.25 90 1015.1
20260901001402 80 290 0.0 0.0 0.00 0.25 0.25 90 1015.0
20260901000857 80 290 0.0 0.0 0.00 0.25 0.25 90 1014.8
20260901000352 80 233 0.0 0.0 0.00 0.25 0.25 90 1014.9